Weather History for Port Hope, MI

Change the Weather History Date:

Saturday, February 16, 2013

  Actual Average Record
Temperature  
Mean Temperature 20 °F -  
Max Temperature 24 °F 30 °F 44 °F (2011)
Min Temperature 17 °F 19 °F -5 °F (2014)
Degree Days  
Heating Degree Days 44    
Moisture  
Dew Point 11 °F    
Average Humidity 66    
Maximum Humidity 81    
Minimum Humidity 53    
Precipitation  
Precipitation 0.00 in - - ()
Sea Level Pressure  
Sea Level Pressure 30.06 in    
Wind  
Wind Speed 5 mph (NW)    
Max Wind Speed 21 mph    
Max Gust Speed 26 mph    
Averages and records for this station are not official NWS values.
T = Trace of Precipitation, MM = Missing Value Source: NWS Daily Summary

Daily Weather History Graph

Daily Weather History Graph

Search for Another Location

Airport:

Trip Planner

Search our weather history database for the weather conditions in past years. The results will help you decide how hot, cold, wet, or windy it might be!

Date:

Astronomy

Feb. 16, 2013 Rise Set
Actual Time 7:28 AM EST 6:02 PM EST
Civil Twilight 6:58 AM EST 6:32 PM EST
Nautical Twilight 6:25 AM EST 7:05 PM EST
Astronomical Twilight 5:51 AM EST 7:39 PM EST
Moon 10:25 AM EST (2/16) 12:15 AM EST (2/16)
Length of Visible Light 11h 33m
Length of Day
10h 34m
Waxing Crescent, 39% of the Moon is Illuminated
Feb 16
Waxing Crescent
Feb 17
First Quarter
Feb 25
Full
Mar 4
Last Quarter
Mar 11
New

Hourly Weather History & Observations

Time (EST) Temp. Windchill Dew Point Humidity Pressure Visibility Wind Dir Wind Speed Gust Speed Precip Events Conditions
12:51 AM 21.9 °F 15.7 °F 14.0 °F 72% 30.09 in - West 4.6 mph - N/A   Unknown
1:51 AM 19.9 °F 13.4 °F 12.0 °F 71% 30.09 in - West 4.6 mph - N/A   Unknown
2:51 AM 18.0 °F 11.1 °F 10.9 °F 74% 30.08 in - WSW 4.6 mph - N/A   Unknown
3:51 AM 17.1 °F 11.7 °F 10.9 °F 77% 30.06 in - WSW 3.5 mph - N/A   Unknown
4:51 AM 19.0 °F 12.3 °F 14.0 °F 81% 30.06 in - WSW 4.6 mph - N/A   Unknown
5:51 AM 19.9 °F 13.4 °F 14.0 °F 78% 30.06 in - West 4.6 mph - N/A   Unknown
6:51 AM 19.9 °F 14.9 °F 10.0 °F 65% 30.06 in - NW 3.5 mph - N/A   Unknown
7:51 AM 17.1 °F - 10.0 °F 74% 30.06 in - Calm Calm - N/A   Unknown
8:51 AM 19.0 °F 13.9 °F 10.0 °F 68% 30.06 in - WSW 3.5 mph - N/A   Unknown
9:51 AM 21.9 °F 15.7 °F 10.0 °F 60% 30.06 in - WSW 4.6 mph - N/A   Unknown
10:51 AM 24.1 °F 18.2 °F 9.0 °F 53% 30.05 in - NW 4.6 mph - N/A   Unknown
11:51 AM 24.1 °F 19.7 °F 9.0 °F 53% 30.04 in - NW 3.5 mph - N/A   Unknown
12:51 PM 23.0 °F 18.4 °F 10.0 °F 58% 30.04 in - NNW 3.5 mph - N/A   Unknown
1:51 PM 23.0 °F 17.0 °F 10.9 °F 60% 30.03 in - NW 4.6 mph - N/A   Unknown
2:51 PM 24.1 °F 19.7 °F 10.9 °F 57% 30.02 in - NNW 3.5 mph - N/A   Unknown
3:51 PM 23.0 °F - 10.0 °F 58% 30.03 in - Calm Calm - N/A   Unknown
4:51 PM 23.0 °F 18.4 °F 9.0 °F 55% 30.04 in - NNW 3.5 mph - N/A   Unknown
5:51 PM 21.9 °F 17.2 °F 8.1 °F 55% 30.04 in - NNW 3.5 mph - N/A   Unknown
6:51 PM 21.0 °F 5.4 °F 16.0 °F 81% 30.06 in - North 20.7 mph - N/A   Unknown
7:51 PM 21.0 °F 5.7 °F 15.1 °F 78% 30.08 in - NNE 19.6 mph 26.5 mph N/A   Unknown
8:51 PM 19.9 °F 4.3 °F 15.1 °F 81% 30.08 in - NNE 19.6 mph 24.2 mph N/A   Unknown
9:51 PM 19.9 °F 10.1 °F 10.0 °F 65% 30.08 in - North 8.1 mph 20.7 mph N/A   Unknown
10:51 PM 19.9 °F 12.1 °F 9.0 °F 62% 30.07 in - NNW 5.8 mph - N/A   Unknown
11:51 PM 19.0 °F 12.3 °F 6.1 °F 57% 30.08 in - NNW 4.6 mph - N/A   Unknown